Вернуться в каталог

ATLAS 5 CENTAUR DEB

АктивенHEO
NORAD 44682·DEBRIS·🇺🇸 United States

Запущен Oct 17, 2018 с Cape Canaveral Space Force Station

Loading…

Ближайшие Пролёты (ближайшие 24 часа)

TLE

УстаревающийSource: Space-Track

Эпоха: Aug 28, 2026, 11:32 UTC

1 44682U 18079AU  26240.48081970 -.00000157  00000-0  00000-0 0  9994
2 44682  13.4665  30.0624 4639360 323.6264  12.2258  1.81923697 48179

Отслеживайте ATLAS 5 CENTAUR DEB в реальном времени с AllMySat

Download on the App Store